Time,TemperatureF,DewpointF,PressureIn,WindDirection,WindDirectionDegrees,WindSpeedMPH,WindSpeedGustMPH,Humidity,HourlyPrecipIn,Conditions,Clouds,dailyrainin,SoftwareType,DateUTC
2013-11-10 00:40:00,70.9,40.4,29.93,South,180,8.1,15.2,33,0.00,,,0.00,VWS V13.00,2013-11-10 05:40:00,
2013-11-10 01:40:00,70.2,38.1,29.90,WSW,248,18.3,18.3,31,0.00,,,0.00,VWS V13.00,2013-11-10 06:40:00,
2013-11-10 02:40:00,68.5,35.0,29.90,WNW,292,2.5,18.3,29,0.00,,,0.00,VWS V13.00,2013-11-10 07:40:00,
2013-11-10 03:40:00,66.4,35.7,29.92,West,270,15.7,15.7,32,0.00,,,0.00,VWS V13.00,2013-11-10 08:40:00,
2013-11-10 04:40:00,61.5,35.0,29.96,NW,315,8.3,15.7,37,0.00,,,0.00,VWS V13.00,2013-11-10 09:40:00,
2013-11-10 05:40:00,56.5,33.1,30.00,NNW,338,14.3,14.3,41,0.00,,,0.00,VWS V13.00,2013-11-10 10:40:00,
2013-11-10 06:40:00,54.1,32.7,30.04,North,0,5.4,14.3,44,0.00,,,0.02,VWS V13.00,2013-11-10 11:40:00,
2013-11-10 07:40:00,52.5,32.3,30.07,North,0,1.6,5.4,46,0.00,,,0.02,VWS V13.00,2013-11-10 12:40:00,
2013-11-10 08:40:00,51.3,32.8,30.09,West,270,2.0,2.0,49,0.00,,,0.02,VWS V13.00,2013-11-10 13:40:00,
2013-11-10 09:40:00,50.2,32.3,30.11,West,270,0.0,2.0,50,0.00,,,0.02,VWS V13.00,2013-11-10 14:40:00,
2013-11-10 10:40:00,49.6,31.3,30.13,West,270,3.1,3.1,49,0.00,,,0.02,VWS V13.00,2013-11-10 15:40:00,
2013-11-10 11:40:00,48.6,30.3,30.13,SW,225,3.4,3.4,49,0.00,,,0.02,VWS V13.00,2013-11-10 16:40:00,
2013-11-10 12:40:00,47.5,30.3,30.14,West,270,5.1,5.1,51,0.00,,,0.02,VWS V13.00,2013-11-10 17:40:00,
2013-11-10 13:40:00,46.0,29.9,30.15,WNW,292,3.8,5.1,53,0.00,,,0.02,VWS V13.00,2013-11-10 18:40:00,
2013-11-10 14:40:00,45.3,29.7,30.15,SSW,202,2.5,3.8,54,0.00,,,0.02,VWS V13.00,2013-11-10 19:40:00,
2013-11-10 15:40:00,45.0,30.2,30.19,WNW,292,2.2,2.5,56,0.00,,,0.02,VWS V13.00,2013-11-10 20:40:00,
2013-11-10 16:40:00,44.8,30.9,30.19,WNW,292,4.7,4.7,58,0.00,,,0.02,VWS V13.00,2013-11-10 21:40:00,
2013-11-10 17:40:00,44.2,30.0,30.22,West,270,1.8,4.7,57,0.00,,,0.02,VWS V13.00,2013-11-10 22:40:00,
2013-11-10 18:40:00,43.3,30.4,30.22,NW,315,0.0,1.8,60,0.00,,,0.02,VWS V13.00,2013-11-10 23:40:00,
2013-11-10 19:40:00,43.0,30.1,30.23,NW,315,4.5,4.5,60,0.00,,,0.02,VWS V13.00,2013-11-11 00:40:00,
2013-11-10 20:40:00,48.2,32.8,30.25,NNW,338,1.6,4.5,55,0.00,,,0.02,VWS V13.00,2013-11-11 01:40:00,
2013-11-10 21:40:00,65.1,39.6,30.27,NNW,338,2.7,2.7,39,0.00,,,0.02,VWS V13.00,2013-11-11 02:40:00,
2013-11-10 22:40:00,80.4,40.4,30.26,WNW,292,6.3,6.3,24,0.00,,,0.02,VWS V13.00,2013-11-11 03:40:00,
2013-11-10 23:40:00,53.2,28.9,30.25,WSW,248,3.8,6.3,39,0.00,,,0.02,VWS V13.00,2013-11-11 04:40:00,